Total_Precipitation_Accumulation
0.05 0.08 0.13 0.12 0.14 0.17 0.21 0.26 0.30 0.41 0.33 0.33 0.49 0.77 0.89 0.89 0.92 1.07 1.26 1.28 1.29 1.41 1.81 2.28 2.79 3.26 3.97 4.94 5.96 6.42 6.30 5.74 5.25 4.88 4.56 4.29 3.93 3.62 3.49 3.19 2.85 2.82 2.81 2.86
0.08 0.10 0.08 0.09 0.10 0.14 0.20 0.28 0.30 0.37 0.31 0.36 0.53 0.85 1.04 1.14 1.21 1.12 1.19 1.31 1.26 1.43 1.88 2.38 2.96 3.34 3.69 4.27 5.11 5.52 5.24 4.68 4.07 3.88 3.79 3.76 3.67 3.24 3.01 2.95 2.94 2.64 2.66 2.75
0.08 0.09 0.07 0.07 0.08 0.14 0.20 0.25 0.30 0.36 0.33 0.43 0.59 1.11 1.41 1.39 1.14 0.93 0.85 1.02 1.07 1.17 1.67 2.39 2.96 3.23 3.49 3.78 3.86 4.01 3.95 3.54 3.25 3.18 3.17 3.21 3.39 3.14 2.84 2.75 2.72 2.51 2.42 2.42
0.07 0.06 0.05 0.06 0.09 0.13 0.20 0.17 0.18 0.25 0.39 0.62 0.71 1.53 1.83 1.52 1.26 1.02 0.87 0.88 0.97 1.11 1.51 2.25 2.58 2.71 2.77 2.86 2.75 2.84 2.95 2.89 2.89 2.82 2.85 2.73 2.58 2.57 2.45 2.45 2.42 2.41 2.30 2.24
0.08 0.05 0.05 0.06 0.09 0.13 0.18 0.14 0.16 0.25 0.42 0.64 0.88 1.43 1.92 1.66 1.45 1.11 0.84 0.82 0.98 1.01 1.22 1.54 1.67 1.83 1.90 1.96 2.00 2.25 2.62 2.80 2.74 2.67 2.79 2.77 2.44 2.31 2.24 2.26 2.41 2.40 2.29 2.19
0.09 0.07 0.06 0.06 0.09 0.11 0.15 0.18 0.25 0.42 0.66 1.14 1.14 1.32 1.80 1.63 1.31 0.94 0.77 0.75 0.70 0.74 0.91 1.08 1.20 1.31 1.37 1.42 1.53 1.78 2.22 2.50 2.49 2.48 2.50 2.41 2.35 2.32 2.28 2.25 2.29 2.24 2.19 2.27
0.12 0.10 0.11 0.10 0.11 0.14 0.14 0.21 0.52 0.99 1.48 1.63 1.07 1.22 1.62 1.26 0.93 0.68 0.55 0.58 0.62 0.76 0.81 0.94 1.14 1.23 1.17 1.13 1.25 1.43 1.74 1.90 1.91 2.01 2.18 2.26 2.32 2.28 2.14 2.12 2.10 2.04 1.86 1.97
0.17 0.19 0.15 0.11 0.10 0.14 0.17 0.20 0.41 0.74 0.91 1.06 1.00 1.48 1.64 0.98 0.72 0.61 0.55 0.55 0.66 0.72 0.70 0.78 0.92 0.96 0.96 1.02 1.09 1.23 1.39 1.48 1.57 1.67 1.87 2.06 2.09 2.07 2.03 2.19 2.08 1.93 1.72 1.67
0.09 0.10 0.09 0.08 0.09 0.11 0.16 0.16 0.20 0.29 0.39 0.76 1.18 1.45 1.34 0.90 0.66 0.58 0.54 0.50 0.61 0.62 0.56 0.61 0.72 0.78 0.81 0.98 1.08 1.12 1.22 1.32 1.43 1.51 1.78 1.96 1.97 1.93 1.97 2.06 1.98 1.80 1.81 1.71
0.06 0.06 0.09 0.09 0.09 0.11 0.14 0.14 0.16 0.23 0.43 0.78 1.22 1.63 1.55 1.18 0.84 0.71 0.56 0.48 0.56 0.56 0.53 0.59 0.64 0.73 0.73 0.75 0.90 1.01 1.08 1.26 1.44 1.52 1.57 1.61 1.77 1.75 1.74 1.68 1.65 1.74 1.79 1.75
0.05 0.06 0.07 0.09 0.11 0.15 0.14 0.12 0.13 0.17 0.26 0.56 1.08 1.37 1.03 0.87 0.69 0.67 0.64 0.58 0.56 0.61 0.62 0.62 0.69 0.71 0.67 0.66 0.79 0.92 1.02 1.15 1.27 1.30 1.35 1.46 1.56 1.56 1.53 1.52 1.49 1.60 1.65 1.70
0.05 0.07 0.09 0.11 0.13 0.13 0.12 0.10 0.12 0.17 0.22 0.30 0.65 0.88 0.58 0.59 0.57 0.64 0.67 0.68 0.73 0.81 0.80 0.78 0.82 0.79 0.77 0.76 0.79 0.89 0.89 0.95 1.03 1.11 1.21 1.29 1.42 1.46 1.46 1.48 1.61 1.70 1.69 1.66
0.05 0.07 0.10 0.22 0.28 0.20 0.12 0.10 0.13 0.14 0.17 0.24 0.55 0.82 0.56 0.56 0.64 0.68 0.67 0.76 0.79 0.74 0.82 0.98 1.01 0.87 0.82 0.81 0.83 0.84 0.83 0.87 0.93 1.02 1.09 1.18 1.33 1.51 1.60 1.64 1.67 1.77 1.82 1.78
0.06 0.07 0.08 0.21 0.30 0.27 0.21 0.16 0.17 0.18 0.21 0.24 0.37 0.61 0.57 0.54 0.62 0.77 0.74 0.73 0.78 0.79 0.83 0.99 1.09 0.88 0.78 0.76 0.78 0.79 0.79 0.79 0.84 1.01 1.16 1.27 1.49 1.69 1.76 1.77 1.80 1.82 1.86 1.85
0.08 0.08 0.07 0.08 0.14 0.20 0.22 0.19 0.18 0.15 0.16 0.23 0.33 0.49 0.62 0.73 0.75 0.75 0.78 0.80 0.74 0.79 0.82 0.85 0.96 0.91 0.83 0.80 0.81 0.85 0.91 0.93 0.95 1.17 1.38 1.60 1.79 1.84 1.87 1.92 1.93 1.98 2.01 1.91
0.11 0.10 0.09 0.09 0.15 0.17 0.18 0.21 0.16 0.13 0.12 0.19 0.32 0.52 0.66 0.66 0.75 0.78 0.73 0.72 0.75 0.81 0.85 0.97 1.03 1.01 0.99 0.96 1.01 1.09 1.15 1.24 1.37 1.54 1.71 1.80 1.86 1.89 1.84 1.84 1.86 2.02 2.07 2.12
0.18 0.18 0.19 0.18 0.21 0.23 0.27 0.24 0.18 0.16 0.18 0.25 0.35 0.54 0.67 0.73 0.88 0.98 0.98 0.88 0.88 0.99 1.02 1.12 1.19 1.17 1.21 1.21 1.31 1.45 1.43 1.50 1.66 1.82 1.98 1.96 1.91 1.94 1.92 1.96 1.99 2.00 2.14 2.28
0.27 0.29 0.26 0.25 0.32 0.45 0.37 0.27 0.24 0.24 0.26 0.30 0.41 0.58 0.71 0.83 0.89 1.05 1.15 1.11 1.01 0.98 1.05 1.18 1.26 1.26 1.23 1.30 1.42 1.65 1.75 1.75 1.87 1.97 2.06 2.12 2.15 2.22 2.29 2.40 2.41 2.46 2.52 2.58
0.30 0.40 0.41 0.40 0.49 0.51 0.45 0.37 0.33 0.36 0.49 0.47 0.59 0.83 0.96 0.99 1.18 1.39 1.32 1.19 1.17 1.21 1.17 1.32 1.33 1.31 1.33 1.51 1.58 1.65 1.76 1.80 1.95 2.14 2.29 2.37 2.42 2.47 2.51 2.54 2.66 2.82 2.98 3.04
0.36 0.39 0.49 0.48 0.59 0.69 0.67 0.51 0.46 0.60 1.14 0.94 0.92 0.99 0.99 1.09 1.56 1.61 1.25 1.13 1.17 1.19 1.30 1.46 1.51 1.47 1.56 1.82 1.88 1.96 2.04 2.10 2.18 2.28 2.44 2.63 2.75 2.80 2.79 2.86 3.04 3.23 3.42 3.46
0.63 0.63 0.59 0.57 0.67 0.78 0.70 0.57 0.65 1.24 1.70 1.36 1.24 1.20 1.22 1.43 1.51 1.49 1.33 1.18 1.14 1.18 1.28 1.44 1.51 1.53 1.60 1.82 2.02 2.30 2.42 2.47 2.47 2.51 2.63 2.78 2.89 3.02 3.08 3.19 3.30 3.51 3.67 3.67
0.92 0.96 0.93 0.91 1.07 1.15 0.75 0.75 1.15 1.51 1.33 1.44 1.59 1.62 1.56 1.56 1.38 1.31 1.30 1.33 1.29 1.27 1.33 1.41 1.54 1.62 1.72 1.85 2.11 2.37 2.56 2.70 2.77 2.76 2.89 2.95 2.96 2.87 2.87 3.14 3.36 3.61 3.85 3.81
1.16 1.19 1.22 1.28 1.42 1.27 0.99 1.08 1.16 1.14 1.29 1.40 1.50 1.65 1.71 1.66 1.66 1.54 1.49 1.50 1.44 1.36 1.31 1.35 1.44 1.57 1.66 1.74 1.95 2.35 2.52 2.62 2.71 2.80 2.84 2.95 2.99 3.01 3.07 3.28 3.46 3.69 3.81 3.74
1.24 1.18 1.32 1.48 1.53 1.40 1.31 1.33 1.36 1.37 1.43 1.44 1.47 1.58 1.67 1.70 1.78 1.69 1.55 1.41 1.30 1.26 1.25 1.33 1.43 1.57 1.66 1.57 1.71 1.92 2.15 2.31 2.40 2.46 2.49 2.49 2.60 2.77 3.01 3.32 3.41 3.47 3.51 3.54
1.38 1.32 1.49 1.86 1.96 1.91 1.78 1.77 1.75 1.63 1.67 1.74 1.69 1.66 1.69 1.60 1.59 1.58 1.40 1.29 1.28 1.33 1.27 1.33 1.49 1.50 1.54 1.60 1.60 1.65 1.71 1.91 2.09 2.14 2.17 2.26 2.37 2.56 2.78 3.01 3.16 3.11 3.14 3.34
1.67 1.62 1.68 1.99 2.04 2.23 2.19 1.97 1.88 1.75 1.79 1.81 1.79 1.69 1.63 1.57 1.56 1.48 1.39 1.34 1.31 1.31 1.33 1.33 1.38 1.36 1.35 1.48 1.56 1.58 1.69 1.86 1.93 1.88 1.91 1.95 2.01 2.19 2.37 2.52 2.65 2.67 2.44 2.50